軌道要素
The following orbital elements are taken from MPC 60282:
Epoch 2007 May 20.0 TT = JDT 2454240.5
T 2007 June 3.3049 TT MPC
q 2.876710 (2000.0) P Q
z -0.001893 Peri. 159.4013 +0.1263528 +0.9202900
+/-0.000044 Node 116.2349 -0.9580912 +0.2099538
e 1.005445 Incl. 24.3805 -0.2570917 -0.3301300
From 95 observations 2006 Apr. 2-2007 July 24, mean residual 0".7.
|